| time (UTC) | temp F | wind direction | speed MPH | gust MPH | rain 1hr in | rain 24hr in | rain mn in | humidity % | barometer mb |
| 20260508204532 | 63 | 234 | 6.0 | 14.0 | 0.00 | 0.00 | 0.00 | 50 | 1008.9 |
| 20260508203038 | 63 | 259 | 6.0 | 14.0 | 0.00 | 0.00 | 0.00 | 48 | 1009.0 |
| 20260508201539 | 63 | 242 | 9.0 | 14.0 | 0.00 | 0.00 | 0.00 | 49 | 1009.2 |
| 20260508200100 | 64 | 232 | 10.0 | 16.0 | 0.00 | 0.00 | 0.00 | 50 | 1009.3 |
| 20260508194531 | 64 | 221 | 9.0 | 15.0 | 0.00 | 0.00 | 0.00 | 51 | 1009.4 |
| 20260508193024 | 65 | 225 | 9.0 | 16.0 | 0.00 | 0.00 | 0.00 | 47 | 1009.4 |
| 20260508191528 | 64 | 205 | 12.0 | 19.0 | 0.00 | 0.00 | 0.00 | 49 | 1009.7 |
| 20260508190012 | 64 | 221 | 11.0 | 22.0 | 0.00 | 0.00 | 0.00 | 48 | 1009.9 |
| 20260508184509 | 64 | 219 | 9.0 | 20.0 | 0.00 | 0.00 | 0.00 | 52 | 1010.2 |
| 20260508183020 | 64 | 201 | 11.0 | 17.0 | 0.00 | 0.00 | 0.00 | 47 | 1010.2 |
| 20260508181514 | 63 | 190 | 11.0 | 16.0 | 0.00 | 0.00 | 0.00 | 50 | 1010.3 |
| 20260508180124 | 63 | 213 | 10.0 | 17.0 | 0.00 | 0.00 | 0.00 | 51 | 1010.7 |
| 20260508174503 | 64 | 225 | 7.0 | 18.0 | 0.00 | 0.00 | 0.00 | 52 | 1010.8 |
| 20260508173007 | 64 | 254 | 10.0 | 18.0 | 0.00 | 0.00 | 0.00 | 51 | 1010.9 |
| 20260508171506 | 64 | 213 | 9.0 | 12.0 | 0.00 | 0.00 | 0.00 | 50 | 1011.2 |
| 20260508170114 | 63 | 190 | 9.0 | 17.0 | 0.00 | 0.00 | 0.00 | 51 | 1011.6 |
| 20260508164600 | 63 | 204 | 10.0 | 18.0 | 0.00 | 0.00 | 0.00 | 51 | 1012.0 |
| 20260508163109 | 62 | 229 | 7.0 | 13.0 | 0.00 | 0.00 | 0.00 | 54 | 1012.1 |
| 20260508161502 | 61 | 220 | 6.0 | 15.0 | 0.00 | 0.00 | 0.00 | 54 | 1012.2 |
| 20260508160109 | 61 | 223 | 9.0 | 16.0 | 0.00 | 0.00 | 0.00 | 56 | 1012.4 |
| 20260508154619 | 61 | 216 | 11.0 | 17.0 | 0.00 | 0.00 | 0.00 | 53 | 1012.5 |
| 20260508153053 | 60 | 252 | 8.0 | 16.0 | 0.00 | 0.00 | 0.00 | 54 | 1012.6 |
| 20260508151548 | 60 | 237 | 8.0 | 15.0 | 0.00 | 0.00 | 0.00 | 54 | 1012.7 |
| 20260508150047 | 59 | 269 | 5.0 | 14.0 | 0.00 | 0.00 | 0.00 | 57 | 1012.7 |
| 20260508144515 | 58 | 248 | 8.0 | 20.0 | 0.00 | 0.00 | 0.00 | 56 | 1012.9 |
| 20260508143019 | 58 | 213 | 8.0 | 15.0 | 0.00 | 0.00 | 0.00 | 57 | 1013.0 |
| 20260508141529 | 58 | 284 | 8.0 | 15.0 | 0.00 | 0.00 | 0.00 | 54 | 1013.0 |
| 20260508140008 | 56 | 283 | 5.0 | 8.0 | 0.00 | 0.00 | 0.00 | 59 | 1013.2 |
| 20260508134513 | 55 | 240 | 5.0 | 9.0 | 0.00 | 0.00 | 0.00 | 59 | 1013.4 |
| 20260508133019 | 54 | 219 | 3.0 | 8.0 | 0.00 | 0.00 | 0.00 | 62 | 1013.4 |
| 20260508131514 | 52 | 285 | 3.0 | 6.0 | 0.00 | 0.00 | 0.00 | 63 | 1013.5 |
| 20260508130115 | 51 | 218 | 3.0 | 6.0 | 0.00 | 0.00 | 0.00 | 65 | 1013.2 |
| 20260508124605 | 50 | 233 | 3.0 | 6.0 | 0.00 | 0.00 | 0.00 | 65 | 1013.5 |
| 20260508123104 | 49 | 232 | 3.0 | 9.0 | 0.00 | 0.00 | 0.00 | 67 | 1013.3 |
| 20260508121559 | 49 | 211 | 4.0 | 6.0 | 0.00 | 0.00 | 0.00 | 67 | 1013.3 |
| 20260508120100 | 48 | 217 | 3.0 | 6.0 | 0.00 | 0.00 | 0.00 | 68 | 1013.2 |
| 20260508114545 | 48 | 217 | 3.0 | 8.0 | 0.00 | 0.00 | 0.00 | 68 | 1013.1 |
| 20260508113049 | 48 | 181 | 5.0 | 9.0 | 0.00 | 0.00 | 0.00 | 66 | 1012.8 |
| 20260508111552 | 48 | 217 | 4.0 | 11.0 | 0.00 | 0.00 | 0.00 | 65 | 1012.6 |
| 20260508110059 | 0 | 0.0 | 0.0 | 0.00 | 0.00 | 0.00 | 1012.6 | ||
| 20260508104534 | 0 | 0.0 | 0.0 | 0.00 | 0.00 | 0.00 | 1012.5 | ||
| 20260508103038 | 0 | 0.0 | 0.0 | 0.00 | 0.00 | 0.00 | 1012.5 | ||
| 20260508101534 | 0 | 0.0 | 0.0 | 0.00 | 0.00 | 0.00 | 1012.4 | ||
| 20260508100004 | 0 | 0.0 | 0.0 | 0.00 | 0.00 | 0.00 | 1012.5 | ||
| 20260508094509 | 0 | 0.0 | 0.0 | 0.00 | 0.00 | 0.00 | 1012.5 | ||
| 20260508093016 | 0 | 0.0 | 0.0 | 0.00 | 0.00 | 0.00 | 1012.6 | ||
| 20260508091512 | 0 | 0.0 | 0.0 | 0.00 | 0.00 | 0.00 | 1012.6 | ||
| 20260508090119 | 0 | 0.0 | 0.0 | 0.00 | 0.00 | 0.00 | 1012.6 | ||
| 20260508084503 | 0 | 0.0 | 0.0 | 0.00 | 0.00 | 0.00 | 1012.5 | ||
| 20260508083102 | 0 | 0.0 | 0.0 | 0.00 | 0.00 | 0.00 | 1012.7 | ||
| 20260508081608 | 0 | 194 | 4.0 | 9.0 | 0.00 | 0.00 | 0.00 | 1012.7 | |
| 20260508080059 | 47 | 202 | 5.0 | 8.0 | 0.00 | 0.00 | 0.00 | 64 | 1012.7 |
| 20260508074534 | 47 | 185 | 3.0 | 8.0 | 0.00 | 0.00 | 0.00 | 63 | 1012.6 |
| 20260508073035 | 48 | 196 | 5.0 | 9.0 | 0.00 | 0.00 | 0.00 | 62 | 1012.7 |
| 20260508071529 | 47 | 210 | 2.0 | 5.0 | 0.00 | 0.00 | 0.00 | 64 | 1012.9 |
| 20260508070012 | 48 | 245 | 1.0 | 5.0 | 0.00 | 0.00 | 0.00 | 64 | 1013.1 |
| 20260508064510 | 49 | 232 | 4.0 | 8.0 | 0.00 | 0.00 | 0.00 | 62 | 1013.1 |
| 20260508063009 | 49 | 193 | 6.0 | 8.0 | 0.00 | 0.00 | 0.00 | 60 | 1013.1 |
| 20260508061509 | 49 | 223 | 5.0 | 9.0 | 0.00 | 0.00 | 0.00 | 59 | 1013.0 |
| 20260508060116 | 50 | 216 | 7.0 | 10.0 | 0.00 | 0.00 | 0.00 | 57 | 1013.0 |
| 20260508054604 | 50 | 217 | 5.0 | 7.0 | 0.00 | 0.00 | 0.00 | 59 | 1013.2 |
| 20260508053055 | 50 | 207 | 7.0 | 12.0 | 0.00 | 0.00 | 0.00 | 57 | 1013.1 |
| 20260508051605 | 50 | 224 | 6.0 | 10.0 | 0.00 | 0.00 | 0.00 | 57 | 1013.2 |
| 20260508050026 | 51 | 178 | 5.0 | 7.0 | 0.00 | 0.00 | 0.00 | 58 | 1013.2 |
| 20260508044523 | 51 | 191 | 4.0 | 8.0 | 0.00 | 0.00 | 0.00 | 57 | 1013.2 |
| 20260508043021 | 51 | 198 | 4.0 | 7.0 | 0.00 | 0.00 | 0.00 | 57 | 1013.2 |
| 20260508041523 | 51 | 196 | 4.0 | 7.0 | 0.00 | 0.00 | 0.00 | 56 | 1013.2 |
| 20260508040006 | 52 | 188 | 4.0 | 7.0 | 0.00 | 0.00 | 0.00 | 55 | 1013.2 |
| 20260508034508 | 52 | 188 | 4.0 | 5.0 | 0.00 | 0.00 | 0.00 | 55 | 1013.2 |
| 20260508033004 | 52 | 214 | 3.0 | 7.0 | 0.00 | 0.00 | 0.00 | 55 | 1013.3 |
| 20260508031506 | 52 | 217 | 3.0 | 6.0 | 0.00 | 0.00 | 0.00 | 54 | 1013.3 |
| 20260508030113 | 52 | 227 | 2.0 | 3.0 | 0.00 | 0.00 | 0.00 | 57 | 1013.4 |
| 20260508024600 | 52 | 223 | 1.0 | 4.0 | 0.00 | 0.00 | 0.00 | 55 | 1013.3 |
| 20260508023040 | 53 | 198 | 2.0 | 5.0 | 0.00 | 0.00 | 0.00 | 53 | 1013.0 |
| 20260508021541 | 53 | 173 | 2.0 | 5.0 | 0.00 | 0.00 | 0.00 | 53 | 1013.0 |
| 20260508020023 | 53 | 189 | 2.0 | 4.0 | 0.00 | 0.00 | 0.00 | 53 | 1013.1 |
| 20260508014527 | 53 | 159 | 2.0 | 4.0 | 0.00 | 0.00 | 0.00 | 52 | 1012.9 |
| 20260508013034 | 53 | 198 | 2.0 | 4.0 | 0.00 | 0.00 | 0.00 | 52 | 1013.2 |
| 20260508011533 | 53 | 173 | 1.0 | 3.0 | 0.00 | 0.00 | 0.00 | 52 | 1013.0 |
| 20260508010015 | 53 | 189 | 2.0 | 3.0 | 0.00 | 0.00 | 0.00 | 51 | 1013.1 |
| 20260508004534 | 53 | 215 | 0.0 | 2.0 | 0.00 | 0.00 | 0.00 | 55 | 1013.0 |
| 20260508003018 | 53 | 209 | 1.0 | 3.0 | 0.00 | 0.00 | 0.00 | 53 | 1013.0 |
| 20260508001530 | 54 | 217 | 2.0 | 4.0 | 0.00 | 0.00 | 0.00 | 53 | 1012.9 |
| 20260508000119 | 55 | 261 | 2.0 | 4.0 | 0.00 | 0.00 | 0.00 | 47 | 1012.9 |
| 20260507234502 | 56 | 229 | 2.0 | 4.0 | 0.00 | 0.00 | 0.00 | 47 | 1012.7 |
| 20260507233006 | 55 | 273 | 2.0 | 7.0 | 0.00 | 0.00 | 0.00 | 49 | 1012.8 |
| 20260507231509 | 56 | 254 | 4.0 | 7.0 | 0.00 | 0.00 | 0.00 | 46 | 1012.8 |
| 20260507230116 | 56 | 284 | 4.0 | 9.0 | 0.00 | 0.00 | 0.00 | 44 | 1012.8 |
| 20260507224555 | 57 | 306 | 2.0 | 7.0 | 0.00 | 0.00 | 0.00 | 44 | 1012.8 |
| 20260507223047 | 56 | 202 | 4.0 | 7.0 | 0.00 | 0.00 | 0.00 | 43 | 1012.9 |
| 20260507221547 | 57 | 251 | 4.0 | 7.0 | 0.00 | 0.00 | 0.00 | 45 | 1013.0 |
| 20260507220021 | 57 | 264 | 5.0 | 10.0 | 0.00 | 0.00 | 0.00 | 44 | 1013.1 |
| 20260507214512 | 57 | 301 | 7.0 | 10.0 | 0.00 | 0.00 | 0.00 | 51 | 1013.2 |
| 20260507213002 | 56 | 305 | 6.0 | 13.0 | 0.00 | 0.00 | 0.00 | 47 | 1013.2 |
| 20260507211604 | 57 | 329 | 7.0 | 11.0 | 0.00 | 0.00 | 0.00 | 47 | 1013.2 |
| 20260507210106 | 56 | 284 | 8.0 | 15.0 | 0.00 | 0.00 | 0.00 | 46 | 1013.1 |